Yaogan 31 hao 02 zu 03 xing

operational
NORAD ID: 47536 Int'l Des: 2021-007 Owner: ZLZB Country: CN Constellation: yaogan
LEO

Über Yaogan 31 hao 02 zu 03 xing

Beschreibung wird geladen...

Live-Position

3D-Globus wird geladen...

Nächste Überflüge

Höhenverlauf

Altitude vs Time

uPlot chart will show altitude changes over time

Zweizeiliger Elementsatz

1 47536U 21007E 26072.01666043 -.00000098 00000-0 -11536-4 0 9997
2 47536 63.4050 29.2897 0167750 0.2717 359.8371 13.45440970251275
Epoch: 13. März 2026 • Age: 18 hours

Aktueller Status

Höhe 1106.6 km
Geschwindigkeit 7.30 km/s
Subsatellitenpunkt -63.46°S, 136.87°W
Startdatum 29. Jan. 2021
Alter 5.1 years
Typ military

Technische Details

Klassifizierung Payload
Masse 500.00 kg
Trockenmasse 500.00 kg
Gesamtmasse 500.00 kg
Länge 0.50 m
Durchmesser 0.50 m
Spannweite 1.00 m
Form Box + 2 Pan
Hersteller DFHZ
Phasenstatus In Orbit
Besitzer/Staat ZLZB/CN

Große Konstellationen

Loading constellations...